Hourly Weather Roundup
Issued by NWS Central Illinois

Home | Current Version | Previous Version | Text Only | Print | Product List | Glossary On
Versions: 1 2 3 4 5 6 7 8 9 10 11 12 13 14 15 16 17 18 19 20 21 22 23 24 25 26 27 28 29 30 31 32 33 34 35 36 37 38 39 40 41 42 43 44 45 46 47 48 49 50
000
NZUS43 KILX 182110
HWRILX

Area Weather Roundup
National Weather Service Lincoln IL
300 PM CST MON DEC 18 2017

NOTE:  "FAIR" indicates few or no clouds below 12,000 feet, with
       no sigificant weather and/or obstructions to visibility.


CITY           SKY/WX    TMP DP  RH WIND       PRES   REMARKS
Bloomington    PTSUNNY   47  40  76 SW17      29.94S
Champaign      CLOUDY    49  40  71 SW17      29.97S
Danville       CLOUDY    47  39  72 SW12G20   29.95R
Decatur        CLOUDY    49  38  65 W15G21    29.98S
Effingham      CLOUDY    48  42  79 SW9       30.03S
Flora          CLOUDY    49  42  79 SW10G17   30.04F
Galesburg      SUNNY     50  38  63 SW14      29.90S
Jacksonville   PTSUNNY   49  40  70 SW17G23   29.97F
Lacon          MOSUNNY   50  37  62 SW10      29.89F
Lawrenceville  CLOUDY    48  45  89 SW12      30.05S
Litchfield     CLOUDY    50  39  65 SW15      30.01S
$$


CITY           SKY/WX    TMP DP  RH WIND       PRES   REMARKS
Lincoln        PTSUNNY   50  42  72 SW7G16    29.96S
Macomb         SUNNY     52  36  55 SW18      29.93F
Mattoon        CLOUDY    47  41  80 SW9       30.00R
Mt Carmel AP   CLOUDY    47  45  91 SW10      30.05S
Olney-Noble AP CLOUDY    46  44  90 W10       30.05F
Paris AP       CLOUDY    47  42  81 SW14      30.00S
Peoria         MOSUNNY   50  37  61 SW14      29.92F
Pontiac        CLOUDY    50  41  72 SW15      29.92F
Rantoul        PTSUNNY   50  41  70 SW16      29.96S
Robinson       CLOUDY    45  42  89 W13       30.05R
Springfield    PTSUNNY   51  40  65 SW14      29.98F
Taylorville    CLOUDY    49  38  66 SW15      29.99F
$$

...REGIONAL REPORTS...


CITY           SKY/WX    TMP DP  RH WIND       PRES   REMARKS
Chicago O`Hare MOSUNNY   45  34  65 W12       29.86S
Kankakee       PTSUNNY   47  40  75 W15       29.92S
Moline         SUNNY     50  37  61 SW15      29.85F
Mount Sterling MOSUNNY   49  38  65 SW12      29.94S
Mount Vernon   CLOUDY    48  42  80 SW9       30.06S
Pittsfield     MOSUNNY   50  40  69 SW17G24   29.98F
Quincy         SUNNY     51  39  63 SW18      29.95S
Rockford       MOSUNNY   42  31  64 SW13      29.87F
$$


CITY           SKY/WX    TMP DP  RH WIND       PRES   REMARKS
Burlington     SUNNY     51  37  58 SW16      29.89F
Cedar Rapids   SUNNY     48  34  58 SW18      29.82F
Des Moines     MOSUNNY   50  31  48 SW16      29.85S
Kirksville     SUNNY     52  37  56 SW17      29.94S
Ottumwa        SUNNY     51  34  52 SW16G26   29.86F
St Louis       MOSUNNY   54  40  59 SW15      30.02F
$$


CITY           SKY/WX    TMP DP  RH WIND       PRES   REMARKS
Terre Haute    CLOUDY    47  42  83 W10       30.01S
Evansville     LGT RAIN  49  46  90 SW9       30.08S
Indianapolis   DRIZZLE   46  41  82 SW14G24   30.00R
Lafayette      CLOUDY    48  40  73 SW13      29.95S
Madison        PTSUNNY   38  30  73 SW8       29.81F WCI  32
Milwaukee      CLOUDY    39  33  79 SW12G21   29.82F WCI  32
$$






USA.gov is the U.S. government's official web portal to all federal, state and local government web resources and services.